This demonstration page uses our WeatherBlox Daily Observations layout. Learn more.

Left ArrowRight Arrow

41.12389, -100.76542

Hourly Observations for February 9, 2017

Temp ( °F °C ) Dew Point ( °F °C ) Humidity (%) Winds ( mph kmh ) Pressure ( in mb ) Visibility ( mi km ) Precip ( " mm )
12:53 am 00:53 Mostly Clear 19 -7.2 13 -10.6 77 77 E 8 13 30.30 1026 10 16 0.00 0.00
1:53 am 01:53 Cloudy 18 -7.8 12 -11.1 77 77 E 13 20 30.30 1026 10 16 0.00 0.00
2:53 am 02:53 Mostly Cloudy 18 -7.8 12 -11.1 77 77 SE 8 13 30.29 1026 10 16 0.00 0.00
3:53 am 03:53 Cloudy 18 -7.8 12 -11.1 77 77 E 10 17 30.25 1024 10 16 0.00 0.00
4:53 am 04:53 Cloudy 19 -7.2 13 -10.6 77 77 ESE 9 15 30.24 1024 10 16 0.00 0.00
5:53 am 05:53 Cloudy 20 -6.7 13 -10.6 74 74 ESE 10 17 30.25 1025 10 16 0.00 0.00
6:53 am 06:53 Partly Cloudy 19 -7.2 13 -10.6 77 77 ESE 9 15 30.25 1024 10 16 0.00 0.00
7:53 am 07:53 Sunny 19 -7.2 13 -10.6 77 77 SE 7 11 30.26 1025 10 16 0.00 0.00
8:53 am 08:53 Sunny 22 -5.6 13 -10.6 68 68 SSE 10 17 30.25 1024 10 16 0.00 0.00
9:53 am 09:53 Sunny 26 -3.3 14 -10 60 60 SSE 15 24 30.22 1024 10 16 0.00 0.00
10:53 am 10:53 Sunny 30 -1.1 15 -9.4 54 54 S 16 26 30.20 1023 10 16 0.00 0.00
11:53 am 11:53 Sunny 35 1.7 17 -8.3 48 48 SSW 16 26 30.17 1022 10 16 0.00 0.00
12:53 pm 12:53 Sunny 38 3.3 18 -7.8 44 44 S 15 24 30.11 1020 10 16 0.00 0.00
1:53 pm 13:53 Sunny 43 6.1 19 -7.2 38 38 S 14 22 30.05 1018 10 16 0.00 0.00
2:53 pm 14:53 Sunny 45 7.2 20 -6.7 37 37 SSE 12 19 29.99 1016 10 16 0.00 0.00
3:53 pm 15:53 Sunny 46 7.8 21 -6.1 37 37 S 13 20 29.97 1015 10 16 0.00 0.00
4:53 pm 16:53 Sunny 45 7.2 21 -6.1 39 39 S 15 24 29.95 1014 10 16 0.00 0.00
5:53 pm 17:53 Sunny 41 5 21 -6.1 45 45 SE 6 9 29.93 1014 10 16 0.00 0.00
6:53 pm 18:53 Clear 34 1.1 21 -6.1 59 59 E 3 6 29.94 1014 10 16 0.00 0.00
7:53 pm 19:53 Clear 36 2.2 22 -5.6 57 57 SE 8 13 29.91 1013 10 16 0.00 0.00
8:53 pm 20:53 Clear 39 3.9 23 -5 53 53 S 6 9 29.89 1012 10 16 0.00 0.00
9:53 pm 21:53 Clear 40 4.4 24 -4.4 53 53 WSW 3 6 29.88 1012 10 16 0.00 0.00
10:53 pm 22:53 Clear 37 2.8 23 -5 57 57 S 5 7 29.85 1011 10 16 0.00 0.00
11:53 pm 23:53 Clear 37 2.8 24 -4.4 59 59 S 7 11 29.81 1010 10 16 0.00 0.00

Powered by AerisWeather